Погода в Мариуполе

Поиск расширенной информации на нашем сайте:

Полезная информация:

Новости сайта



02.01.2020
Опубликован Долгосрочный прогноз погоды по городам России и ближнего зарубежья на январь 2020 года.
Карты: Прогноз на январь и февраль 2020 года, Сравнение прогнозируемой аномалии приземной температуры воздуха на январь 2020 года по разным моделям.




Погода в Мариуполе - сегодня

Время (UTC), дата Ветер
(°,м/с) 
Видим.   Явления Облачность Т
(°С)
Тd
(°С)
f(%) Тe
(°С)
Pmin
(гПа)
dP
(гПа)
Po
(мм)
O2
(г/м3)
Тmin Tmax R s Состояние
почвы
00 19.01.20 090 (В) 10 км    10/0 средняя 
[As op]
-1.7 -2.2 96 -5  1030.4  -0.2  766  311           
03 19.01.20 050 (СВ) 4000 м  дымка  10/10 630 м 
[St]
-2.3 -2.9 96 -6  1030.4  766  312          полностью
покрыта
пылью 
06 19.01.20 020 (С) 10 км    10/10 570 м 
[St]
-1.9 -2.5 96 -5  1030.9  0.5  766  311  -2.7        полностью
покрыта
пылью 
09 19.01.20 090 (В) 20000 м    8/6 600 м средняя, верхняя 
[Sc|Ac trans|Cs]
+0.7 -0.7 90 -3  1030.5  -0.3  766  308           
12 19.01.20 110 (В) 20000 м    4/4 1000 м 
[Cu hum]
+2.4 -1.6 75 -1  1029.3  -1.1  765  306        598   
15 19.01.20 050 (СВ) 20000 м    1/0 верхняя 
[Cs]
+1.4 -1.5 81 -1  1030.4  1.1  766  307           
18 19.01.20 360 (С) 20000 м    ясно 60 м 
-0.7 -2.9 85 -4  1031.4  0.9  767  310    -59.7      полностью
покрыта
пылью 
21 19.01.20 020 (С) 10 км    ясно 
-1.5 -3.5 86 -4  1032  0.5  767  311           
00 20.01.20 360 (С) 4000 м  дымка  ясно 
-3 -4 93 -4  1032.4  0.4  768  313           
03 20.01.20 020 (С) 4000 м  дымка  ясно 
-3.8 -4.3 96 -5  1032.8  0.4  768  314           
06 20.01.20 340 (С) 4000 м  дымка  ясно 
-4.6 -4.9 98 -6  1033.3  0.4  768  315  -5         
09 20.01.20 340 (С) 10 км    3/0 верхняя 
[Cs]
+0.4 -1.7 86 -2  1033.3  0.2  768  309           
12 20.01.20 320 (СЗ) 4000 м  дымка  10/10 660 м 
[Sc]
+0.2 -1.9 86 -2  1032.5  -0.8  768  309          полностью
покрыта
пылью 
15 20.01.20 340 (С) 2000 м  дымка  10/10 630 м 
[Sc]
-2.7 -3.4 95 -6  1033.2  0.6  768  313          полностью
покрыта
пылью 
18 20.01.20 320 (СЗ) 10 км    10/10 480 м 
[St]
-2.7 -3.4 95 -6  1033.5  0.3  768  313    +0.8      полностью
покрыта
пылью 
21 20.01.20 320 (СЗ) 10 км    10/10 700 м 
[Sc]
-1.9 -2.7 94 -3  1033.3  -0.2  768  312           
00 21.01.20 270 (З) 10 км    10/10 800 м 
[Sc]
-1.4 -2.5 92 -2  1032.5  -0.8  768  311           
03 21.01.20 320 (СЗ) 20000 м    10/10 720 м 
[Sc]
-0.5 -2 90 -1  1031.4  -1  767  310           
06 21.01.20 320 (СЗ) 10 км    10/10 630 м 
[Sc]
-0.4 -1 96 -3  1031.1  -0.3  767  310  -2.7         
09 21.01.20 290 (З) 10 км    10/10 630 м 
[Sc]
+0.2 -1.3 90 -3  1030  -1.1  766  309           
12 21.01.20 270 (З) 10 км    10/10 630 м 
[Sc]
+0.2 -1.5 88 -2  1027.5  -2.5  764  308           
15 21.01.20 250 (З) 10 км    10/10 660 м 
[Sc]
+0 -1.4 90 -2  1025.9  -1.6  763  308           
18 21.01.20 250 (З) 10 км    10/0 средняя 
[As op]
+0 -1.1 92 -3  1023.9  -1.9  761  307    +0.2       
21 21.01.20 250 (З) 10 км    8/0 средняя 
[As trans]
+0.8 -0.3 92 -3  1021.6  -2.3  760  305           
00 22.01.20 250 (З) 10 км    10/6 1500 м средняя 
[Sc|As op]
+1 -0.7 88 -3  1019.7  -1.9  758  304           
Время (UTC), дата Ветер
(°,м/с) 
Видим.   Явления Облачность Т
(°С)
Тd
(°С)
f(%) Тe
(°С)
Pmin
(гПа)
dP
(гПа)
Po
(мм)
O2
(г/м3)
Тmin Tmax R s Состояние
почвы

Для получения пояснительной информации подведите курсор к названию столбца.

ПОГОДА в Мариуполе - архив

Всё, что Вы хотите узнать о погоде в Мариуполе - удобно и подробно!

Выберите нужную дату (начиная с 1 января 2019* года) и нажмите кнопку "Найти".
Будут отображены архивные сводки погоды по пункту Мариуполь, начиная с указанной даты.


Отображать данные в формате CSV (для использования в таблицах Excel)


Внимание! Наш архив погоды предназначен исключительно для личного некоммерческого использования в познавательных целях. Если Вам необходимы официальные справки о состоянии погоды (для производственных, юридических, коммерческих и т.п. целей), обращайтесь в органы Росгидромета.

*Примечание: данная дата относится к архиву по метеостанциям СССР (Россия, СНГ, Балтия).
Архив по метеостанциям Зарубежной Европы и Азии (кроме Китая) хранится 10 дней, по другим регионам земного шара (Китай, Африка, Америка, Австралия, Океания) - 1 день.

Мариуполь - район местоположения метеостанции


Название, широта, долгота, высота метеостанции:
Мариуполь (город) 47°ш. 37.5°д. 70 м над ур. моря [Украина]

Дополнительная информация

В oтличие oт бoльшинства пoгoдных сайтoв мы публикуем пoдрoбную метеoинфoрмацию в детальнoм прoфессиoнальнoм фoрмате.

Характеристики температуры и влажнoсти вoздуха измеряются на высoте 2 м в тени вдали oт зданий и деревьев.
Скoрoсть ветра измеряется на высoте 10 м (на урoвне рoста челoвека скoрoсть ветра ниже в 1.5-2 раза). Если метеoстанция нахoдится в гoрoде или в лесу, тo скoрoсть ветра занижена на 2-4 м/с пo сравнению с oткрытым местoм. Скoрoсть ветра над акватoриями крупных рек и oзёр, а также на вершинах хoлмoв на 2-5 м/с выше, чем в oбычных услoвиях.
Атмoсфернoе давление в разных тoчках местнoсти мoжет значительнo oтличаться oт давления на метеoстанции, в зависимoсти oт услoвий рельефа (при пoдъёме на 10 м давление пoнижается примернo на 1 мм рт.ст.).